Weather in Jyväskylä

Finland     62°14′21″N   25°44′46″E
temp.,
°C
wind,
m/s
gust,
m/s
humid.,
%
clouds,
%
prec.,
mm/h
press.,
hPa
HPBL,
m
1 december, wed
wed123:00−8nnw61385100 0.1 983832
02:00−8nnw61285100 0.2 984801
05:00−9nnw51285100 0.0 985667
08:00−9nw5138589 0.1 987679
11:00−8nw5128392 0.0 988860
14:00−7nw41086100 0.1 989974
17:00−8wnw4108599 0.1 990663
20:00−10w389271 0.1 991359
2 december, thu
thu223:00−11w279620 0.0 992184
02:00−13wsw119747 0.0 99332
05:00−13wsw119763 0.0 99311
08:00−12sw009873 0.0 99410
11:00−10ene009492 0.1 99546
14:00−10ne1198100 0.1 99515
17:00−12nne1198100 0.0 99730
20:00−12nne1498100 0.0 99895
3 december, fri
fri323:00−12nne2798100 0.0 998175
02:00−12n279890 0.0 999148
05:00−12nne2898100 0.0 999193
08:00−10nne2897100 0.1 999249
11:00−7nne399493 0.3 1000436
14:00−6ne499298 0.4 1000636
17:00−7ne3994100 0.1 1001639
20:00−8nne399499 0.3 1002652
4 december, sat
sat423:00−8nne4993100 0.2 1003643
02:00−9nne41091100 0.3 1004737
05:00−10nne41089100 0.1 1005677
08:00−11nne41089100 0.2 1007674
11:00−11nne4988100 0.1 1008746
14:00−11nne3889100 0.1 1010752
17:00−11nne3989100 0.1 1012567
20:00−11nne3892100 0.1 1014469
5 december, sun
sun523:00−11ne379499 0.1 1016418
02:00−12ne269691 0.2 1018266
05:00−12ne279581 0.0 1019280
08:00−13ne279785 0.1 1021293
11:00−12ene279379 0.0 1023337
14:00−13ene369063 0.1 1024324
17:00−13ene269475 0.0 1025251
20:00−13ene269482 0.1 1026233